Main page
METAR-TAF:

METAR-TAF

Airports :

Iranshahr, Iran

latitude: 27-12N, longitude: 060-42E, elevation: 591 m

Current weather observation

The report was made 48 minutes ago, at 04:00 UTC
Calm wind
Temperature 33°C
Humidity 34%
Pressure 1008 hPa
Visibility 10 km or more
no clouds below 1500 m and no cumulonimbus

METAR: OIZI 240400Z 00000KT CAVOK 33/15 Q1008

Time: 09:18 (04:48 UTC)


TAF: missing

Weather observations and forecasts of more than 4000 airports (METAR and TAF reports).

The available stations are represented by yellow and red dots on the map.

Hover mouse over dot to see the name of the station.

Then click to see weather observations and forecasts.

To change the map : click on the green buttons with a black cross to zoom in, on the green button with a dash to zoom out, or on the green arrows for adjacent maps.


METAR-TAF: